This is the latest recevied weather packets stored in our database for station/object KD8TSA. If no packets are shown the sender has not sent any weather packets the latest 10 day(s).
| Time | Temp. | Humidity | Pressure | Rain* | Wind** | Luminosity | Snow |
|---|---|---|---|---|---|---|---|
| 1777748282 | 11.67° C | 55% | 1016 hPa | 0 mm | - | 890 W/m² | - |
| 1777747978 | 11.11° C | 54% | 1015.9 hPa | 0 mm | - | 922 W/m² | - |
| 1777747675 | 10.56° C | 55% | 1016.2 hPa | 0 mm | - | 918 W/m² | - |
| 1777747371 | 10° C | 58% | 1016.1 hPa | 0 mm | - | 952 W/m² | - |
| 1777747068 | 11.11° C | 55% | 1016 hPa | 0 mm | - | 196 W/m² | - |
| 1777746764 | 10.56° C | 58% | 1016.1 hPa | 0 mm | - | 912 W/m² | - |
| 1777746459 | 10° C | 58% | 1016.2 hPa | 0 mm | - | 900 W/m² | - |
| 1777746155 | 10° C | 58% | 1016.1 hPa | 0 mm | - | 245 W/m² | - |
| 1777745852 | 10° C | 55% | 1016.1 hPa | 0 mm | - | 757 W/m² | - |
| 1777745551 | 10° C | 58% | 1016.4 hPa | 0 mm | - | 887 W/m² | - |
| 1777745248 | 10.56° C | 58% | 1016.1 hPa | 0 mm | - | 967 W/m² | - |
| 1777744946 | 10.56° C | 58% | 1016.3 hPa | 0 mm | - | 511 W/m² | - |
| 1777744645 | 11.11° C | 57% | 1016.3 hPa | 0 mm | - | 323 W/m² | - |
| 1777744340 | 10.56° C | 59% | 1016.3 hPa | 0 mm | - | 902 W/m² | - |
| 1777744038 | 10.56° C | 56% | 1016.3 hPa | 0 mm | - | 227 W/m² | - |
| 1777743735 | 10° C | 55% | 1016.1 hPa | 0 mm | - | 849 W/m² | - |
| 1777743431 | 10° C | 58% | 1016.5 hPa | 0 mm | - | 226 W/m² | - |
| 1777743129 | 10° C | 59% | 1016.3 hPa | 0 mm | - | 255 W/m² | - |
| 1777742827 | 9.44° C | 57% | 1016.8 hPa | 0 mm | - | 826 W/m² | - |
| 1777742523 | 9.44° C | 57% | 1016.5 hPa | 0 mm | - | 238 W/m² | - |
| 1777742218 | 10° C | 56% | 1016.5 hPa | 0 mm | - | 827 W/m² | - |
| 1777741915 | 10° C | 60% | 1016.5 hPa | 0 mm | - | 829 W/m² | - |
| 1777741613 | 10.56° C | 57% | 1016.4 hPa | 0 mm | - | 890 W/m² | - |
| 1777741310 | 10° C | 61% | 1016.4 hPa | 0 mm | - | 600 W/m² | - |
| 1777741006 | 10° C | 59% | 1016.6 hPa | 0 mm | - | 532 W/m² | - |
* Rain latest hour (hover to see other rain measurements)
** Current wind speed in m/s (hover to see current wind gust speed)